Weather History for Clarion, IA

Change the Weather History Date:

Monday, May 26, 2014

  Actual Average Record
Temperature  
Mean Temperature 73 °F -  
Max Temperature 82 °F 72 °F 98 °F (1967)
Min Temperature 62 °F 50 °F 30 °F (1992)
Cooling Degree Days 8    
Growing Degree Days 23 (Base 50)    
Moisture  
Dew Point 63 °F    
Average Humidity 77    
Maximum Humidity 100    
Minimum Humidity 48    
Precipitation  
Precipitation 0.25 in - - ()
Sea Level Pressure  
Sea Level Pressure 29.95 in    
Wind  
Wind Speed 9 mph (SSW)    
Max Wind Speed 20 mph    
Max Gust Speed 25 mph    
Visibility 10 miles    
Events Rain    
Averages and records for this station are not official NWS values.
T = Trace of Precipitation, MM = Missing Value Source: NWS Daily Summary

Daily Weather History Graph

Daily Weather History Graph

Search for Another Location

Airport:

Trip Planner

Search our weather history database for the weather conditions in past years. The results will help you decide how hot, cold, wet, or windy it might be!

Date:

Astronomy

May. 26, 2014 Rise Set
Actual Time 5:43 AM CDT 8:41 PM CDT
Civil Twilight 5:09 AM CDT 9:15 PM CDT
Nautical Twilight 4:26 AM CDT 9:58 PM CDT
Astronomical Twilight 3:36 AM CDT 10:49 PM CDT
Moon 4:29 AM CDT (5/26) 6:42 PM CDT (5/26)
Length of Visible Light 16h 06m
Length of Day
14h 58m
Waning Crescent, 5% of the Moon is Illuminated
May 26
Waning Crescent
May 28
New
Jun 5
First Quarter
Jun 12
Full
Jun 19
Last Quarter

Hourly Weather History & Observations

Time (CDT) Temp. Heat Index Dew Point Humidity Pressure Visibility Wind Dir Wind Speed Gust Speed Precip Events Conditions
12:15 AM 66.2 °F - 62.6 °F 88% 29.97 in 10.0 mi SSW 9.2 mph - N/A   Mostly Cloudy
12:35 AM 66.2 °F - 62.6 °F 88% 29.98 in 10.0 mi SSW 8.1 mph - N/A   Overcast
12:55 AM 66.2 °F - 62.6 °F 88% 29.97 in 10.0 mi South 6.9 mph - N/A   Overcast
1:15 AM 66.2 °F - 62.6 °F 88% 29.96 in 10.0 mi SSE 4.6 mph - N/A   Overcast
1:35 AM 66.2 °F - 62.6 °F 88% 29.96 in 10.0 mi SSE 5.8 mph - N/A   Overcast
1:55 AM 66.2 °F - 62.6 °F 88% 29.96 in 10.0 mi SSE 5.8 mph - N/A   Mostly Cloudy
2:15 AM 66.2 °F - 62.6 °F 88% 29.97 in 10.0 mi SSW 4.6 mph - N/A   Mostly Cloudy
2:35 AM 66.2 °F - 60.8 °F 83% 29.96 in 10.0 mi SSE 8.1 mph - N/A   Mostly Cloudy
2:55 AM 66.2 °F - 60.8 °F 83% 29.95 in 10.0 mi South 8.1 mph - N/A   Overcast
3:15 AM 66.2 °F - 60.8 °F 83% 29.95 in 10.0 mi South 10.4 mph - N/A   Scattered Clouds
3:35 AM 64.4 °F - 62.6 °F 94% 29.95 in 10.0 mi SSE 9.2 mph - N/A   Clear
3:55 AM 64.4 °F - 62.6 °F 94% 29.94 in 10.0 mi SSE 10.4 mph - N/A   Clear
4:15 AM 64.4 °F - 62.6 °F 94% 29.94 in 10.0 mi South 10.4 mph - N/A   Mostly Cloudy
4:35 AM 64.4 °F - 62.6 °F 94% 29.94 in 10.0 mi South 8.1 mph 15.0 mph N/A   Scattered Clouds
4:55 AM 64.4 °F - 62.6 °F 94% 29.94 in 10.0 mi South 9.2 mph - N/A   Partly Cloudy
5:15 AM 66.2 °F - 62.6 °F 88% 29.94 in 10.0 mi SSE 9.2 mph - N/A   Clear
5:35 AM 64.4 °F - 62.6 °F 94% 29.94 in 10.0 mi South 8.1 mph - N/A   Partly Cloudy
5:55 AM 64.4 °F - 62.6 °F 94% 29.95 in 10.0 mi South 6.9 mph - N/A   Mostly Cloudy
6:15 AM 66.2 °F - 64.4 °F 94% 29.96 in 10.0 mi SSW 8.1 mph - N/A   Overcast
6:35 AM 66.2 °F - 64.4 °F 94% 29.97 in 10.0 mi SSW 5.8 mph - N/A   Overcast
6:55 AM 66.2 °F - 64.4 °F 94% 29.98 in 10.0 mi South 4.6 mph - N/A   Scattered Clouds
7:15 AM 66.2 °F - 64.4 °F 94% 29.99 in 10.0 mi South 4.6 mph - N/A   Mostly Cloudy
7:35 AM 66.2 °F - 64.4 °F 94% 30.00 in 10.0 mi WSW 4.6 mph - N/A   Overcast
7:55 AM 66.2 °F - 64.4 °F 94% 29.99 in 10.0 mi SW 4.6 mph - N/A   Scattered Clouds
8:15 AM 66.2 °F - 64.4 °F 94% 29.99 in 9.0 mi West 4.6 mph - N/A   Clear
8:35 AM 68.0 °F - 64.4 °F 88% 30.00 in 10.0 mi Calm Calm - N/A   Clear
8:55 AM 68.0 °F - 64.4 °F 88% 30.00 in 10.0 mi SSW 3.5 mph - N/A   Clear
9:15 AM 68.0 °F - 64.4 °F 88% 30.00 in 10.0 mi SW 5.8 mph - N/A   Clear
9:35 AM 69.8 °F - 64.4 °F 83% 30.00 in 10.0 mi Variable 6.9 mph - N/A   Clear
10:15 AM 71.6 °F - 64.4 °F 78% 29.99 in 10.0 mi SW 9.2 mph - N/A   Clear
10:55 AM 73.4 °F - 64.4 °F 73% 29.98 in 10.0 mi SSW 10.4 mph - N/A   Clear
11:15 AM 75.2 °F - 64.4 °F 69% 29.98 in 10.0 mi SSW 11.5 mph - N/A   Scattered Clouds
11:35 AM 75.2 °F - 62.6 °F 65% 29.98 in 10.0 mi SW 10.4 mph 17.3 mph N/A   Scattered Clouds
11:55 AM 75.2 °F - 62.6 °F 65% 29.97 in 10.0 mi SSW 13.8 mph - N/A   Clear
12:15 PM 77.0 °F - 62.6 °F 61% 29.97 in 10.0 mi SSW 11.5 mph - N/A   Scattered Clouds
12:35 PM 78.8 °F - 62.6 °F 57% 29.97 in 10.0 mi SW 11.5 mph 18.4 mph N/A   Partly Cloudy
12:55 PM 77.0 °F - 62.6 °F 61% 29.97 in 10.0 mi SSW 15.0 mph 20.7 mph N/A   Scattered Clouds
1:15 PM 78.8 °F - 62.6 °F 57% 29.96 in 10.0 mi SSW 13.8 mph 20.7 mph N/A   Scattered Clouds
1:35 PM 78.8 °F - 64.4 °F 61% 29.96 in 10.0 mi SSW 15.0 mph 21.9 mph N/A   Mostly Cloudy
1:55 PM 78.8 °F - 62.6 °F 57% 29.96 in 10.0 mi SSW 17.3 mph 25.3 mph N/A   Mostly Cloudy
2:15 PM 78.8 °F - 62.6 °F 57% 29.95 in 10.0 mi SSW 16.1 mph 23.0 mph N/A   Partly Cloudy
2:35 PM 78.8 °F - 62.6 °F 57% 29.94 in 10.0 mi SSW 12.7 mph - N/A   Clear
2:55 PM 78.8 °F - 62.6 °F 57% 29.93 in 10.0 mi SW 16.1 mph 23.0 mph N/A   Scattered Clouds
3:15 PM 78.8 °F - 62.6 °F 57% 29.91 in 10.0 mi SSW 13.8 mph 19.6 mph N/A   Scattered Clouds
3:35 PM 78.8 °F - 60.8 °F 54% 29.90 in 10.0 mi SSW 11.5 mph - N/A   Clear
4:15 PM 82.4 °F 82.9 °F 60.8 °F 48% 29.89 in 10.0 mi SSW 15.0 mph 21.9 mph N/A   Clear
4:35 PM 80.6 °F 81.1 °F 59.0 °F 48% 29.89 in 10.0 mi South 13.8 mph 20.7 mph N/A   Clear
4:55 PM 80.6 °F 81.5 °F 60.8 °F 51% 29.89 in 10.0 mi SSW 10.4 mph 21.9 mph N/A   Scattered Clouds
5:15 PM 80.6 °F 81.5 °F 60.8 °F 51% 29.89 in 10.0 mi SSW 13.8 mph - N/A   Mostly Cloudy
5:35 PM 80.6 °F 81.8 °F 62.6 °F 54% 29.89 in 10.0 mi South 16.1 mph 21.9 mph N/A   Mostly Cloudy
5:55 PM 78.8 °F - 60.8 °F 54% 29.89 in 10.0 mi South 13.8 mph 20.7 mph N/A   Partly Cloudy
6:15 PM 78.8 °F - 60.8 °F 54% 29.89 in 10.0 mi SSW 18.4 mph - N/A   Clear
6:35 PM 78.8 °F - 60.8 °F 54% 29.89 in 10.0 mi SSW 15.0 mph 21.9 mph N/A   Clear
6:55 PM 78.8 °F - 62.6 °F 57% 29.89 in 10.0 mi SSW 18.4 mph - N/A   Partly Cloudy
7:15 PM 78.8 °F - 62.6 °F 57% 29.90 in 10.0 mi SW 15.0 mph - N/A   Partly Cloudy
7:35 PM 78.8 °F - 62.6 °F 57% 29.90 in 10.0 mi SW 11.5 mph - N/A   Partly Cloudy
7:55 PM 71.6 °F - 62.6 °F 73% 29.92 in 10.0 mi NNW 18.4 mph - N/A   Mostly Cloudy
8:15 PM 68.0 °F - 62.6 °F 83% 29.92 in 6.0 mi NW 19.6 mph - N/A Rain Light Rain
8:35 PM 66.2 °F - 62.6 °F 88% 29.91 in 5.0 mi NNW 10.4 mph - N/A Rain Light Rain
8:55 PM 66.2 °F - 60.8 °F 83% 29.92 in 9.0 mi SW 6.9 mph - 0.21 in Rain Light Rain
9:15 PM 66.2 °F - 62.6 °F 88% 29.92 in 10.0 mi SSE 4.6 mph - N/A   Light Drizzle
9:55 PM 66.2 °F - 62.6 °F 88% 29.95 in 10.0 mi South 12.7 mph - N/A   Overcast
10:15 PM 64.4 °F - 62.6 °F 94% 29.95 in 9.0 mi South 9.2 mph - N/A Rain Light Rain
10:35 PM 64.4 °F - 62.6 °F 94% 29.95 in 10.0 mi South 6.9 mph - N/A Rain Light Rain
10:55 PM 64.4 °F - 62.6 °F 94% 29.94 in 9.0 mi South 9.2 mph - 0.03 in Rain Light Rain
11:15 PM 64.4 °F - 62.6 °F 94% 29.93 in 10.0 mi South 6.9 mph - N/A   Overcast
11:35 PM 64.4 °F - 62.6 °F 94% 29.91 in 10.0 mi South 5.8 mph - N/A   Mostly Cloudy
11:55 PM 62.6 °F - 62.6 °F 100% 29.92 in 10.0 mi SW 8.1 mph - 0.01 in   Partly Cloudy